EW5246 Weather Reports


Display with metric or nautical units.
time (UTC)temp
F
wind
direction
speed
MPH
gust
MPH
rain 1hr
in
rain 24hr
in
rain mn
in
humidity
%
barometer
mb
20260504001601 56 185 4.0 8.0 0.00 0.00 0.00 44 1012.2
20260504000054 56 163 4.0 11.0 0.00 0.00 0.00 44 1012.2
20260503234553 56 189 1.0 8.0 0.00 0.00 0.00 45 1012.3
20260503233052 57 239 4.0 11.0 0.00 0.00 0.00 44 1012.4
20260503231550 57 245 4.0 12.0 0.00 0.00 0.00 43 1012.4
20260503230050 57 210 3.0 11.0 0.00 0.00 0.00 44 1012.4
20260503224549 57 209 6.0 14.0 0.00 0.00 0.00 43 1012.5
20260503223048 57 243 5.0 15.0 0.00 0.00 0.00 42 1012.7
20260503221547 57 160 6.0 16.0 0.00 0.00 0.00 43 1012.7
20260503220051 57 219 6.0 12.0 0.00 0.00 0.00 43 1012.7
20260503214546 58 236 5.0 13.0 0.00 0.00 0.00 42 1012.7
20260503213052 58 231 4.0 11.0 0.00 0.00 0.00 42 1012.6
20260503211545 58 265 3.0 13.0 0.00 0.00 0.00 41 1012.5
20260503210100 58 214 3.0 13.0 0.00 0.00 0.00 41 1012.6
20260503204547 59 212 4.0 15.0 0.00 0.00 0.00 41 1012.6
20260503203051 58 203 4.0 12.0 0.00 0.00 0.00 43 1012.7
20260503201545 58 186 5.0 11.0 0.00 0.00 0.00 41 1012.9
20260503200047 59 166 5.0 13.0 0.00 0.00 0.00 40 1013.1
20260503194543 58 65 3.0 15.0 0.00 0.00 0.00 43 1013.4
20260503193046 59 235 6.0 18.0 0.00 0.00 0.00 40 1013.7
20260503191538 58 238 7.0 12.0 0.00 0.00 0.00 40 1013.9
20260503190007 58 147 7.0 17.0 0.00 0.00 0.00 41 1014.0
20260503184505 58 266 6.0 18.0 0.00 0.00 0.00 40 1014.1
20260503183002 58 246 6.0 18.0 0.00 0.00 0.00 40 1014.3
20260503181504 58 261 4.0 18.0 0.00 0.00 0.00 42 1014.4
20260503180100 58 266 6.0 16.0 0.00 0.00 0.00 42 1014.6
20260503174558 57 226 6.0 13.0 0.00 0.00 0.00 42 1014.7
20260503173101 57 223 5.0 18.0 0.00 0.00 0.00 42 1014.8
20260503171554 57 288 4.0 13.0 0.00 0.00 0.00 42 1015.0
20260503081630 34 223 0.0 0.0 0.00 0.15 0.00 87 1016.0
20260503071520 34 215 0.0 0.0 0.00 0.15 0.00 86 1016.0
20260503054513 35 214 0.0 0.0 0.00 0.17 0.00 83 1016.3
20260503053006 36 221 0.0 0.0 0.00 0.17 0.00 83 1016.4
20260503051504 36 218 0.0 0.0 0.00 0.17 0.00 82 1016.4
20260503050010 36 219 0.0 0.0 0.00 0.18 0.00 81 1016.5
20260503044613 37 213 0.0 0.0 0.00 0.18 0.00 80 1016.5
20260503043102 37 212 0.0 0.0 0.00 0.18 0.00 76 1016.5
20260503041554 38 218 0.0 0.0 0.00 0.18 0.00 74 1016.5
20260503040052 38 219 0.0 0.0 0.00 0.18 0.00 73 1016.6
20260503034554 39 214 0.0 0.0 0.00 0.18 0.18 71 1016.7
20260503033109 39 209 0.0 0.0 0.00 0.18 0.18 69 1016.7
20260503031557 39 211 0.0 0.0 0.00 0.18 0.18 69 1016.8
20260503030110 39 218 0.0 0.0 0.00 0.18 0.18 72 1016.8
20260503024623 39 218 0.0 0.0 0.00 0.18 0.18 70 1016.9
20260503023058 39 218 0.0 0.0 0.00 0.18 0.18 70 1017.1
20260503021600 39 269 0.0 0.0 0.00 0.18 0.18 70 1017.1
20260503020054 39 269 0.0 0.0 0.00 0.18 0.18 68 1017.0
20260503014554 39 269 0.0 0.0 0.00 0.18 0.18 65 1017.0
20260503013053 40 269 0.0 0.0 0.00 0.18 0.18 65 1017.0
20260503011559 40 267 0.0 0.0 0.00 0.18 0.18 64 1017.0
20260503010046 40 266 0.0 0.0 0.00 0.18 0.18 63 1016.9
20260503004547 40 266 0.0 0.0 0.00 0.18 0.18 62 1016.9
20260503003045 40 266 0.0 0.0 0.00 0.18 0.18 61 1016.9